PTR4 CYTZ-CYOW

Flight info

Callsign PTR4
Flight time 0h 49m
Altitude 21000
Route BOMET7 MIVOK CAPTL5
Aircraft DH8D/M-SDE2E3FGRY/H

Departure

Time 2026-05-05 17:57
Airport Billy Bishop Toronto City Airport (CYTZ)

Arrival

Time 2026-05-05 18:47
Airport Ottawa Macdonald-Cartier International Airport (CYOW)
Time Latitude Longitude Altitude Speed Heading
2026-05-05 17:32 43.63105 -79.39502 243 ft 0 kts 342°
2026-05-05 17:51 43.63106 -79.39503 243 ft 0 kts 342°
2026-05-05 17:51 43.63094 -79.39497 242 ft 2 kts 342°
2026-05-05 17:51 43.63079 -79.39490 242 ft 2 kts 343°
2026-05-05 17:52 43.63065 -79.39484 242 ft 2 kts 342°
2026-05-05 17:52 43.63051 -79.39484 242 ft 2 kts 26°
2026-05-05 17:52 43.63042 -79.39497 241 ft 2 kts 72°
2026-05-05 17:52 43.63039 -79.39512 241 ft 0 kts 72°
2026-05-05 17:53 43.63038 -79.39513 241 ft 0 kts 72°
2026-05-05 17:55 43.63050 -79.39467 242 ft 14 kts 71°
2026-05-05 17:55 43.63089 -79.39279 243 ft 23 kts 90°
2026-05-05 17:55 43.63121 -79.39063 243 ft 26 kts 72°
2026-05-05 17:55 43.63085 -79.38963 244 ft 0 kts 232°
2026-05-05 17:56 43.63083 -79.38969 243 ft 0 kts 251°
2026-05-05 17:57 43.63052 -79.39091 242 ft 49 kts 251°
2026-05-05 17:57 43.62853 -79.39904 242 ft 124 kts 251°
2026-05-05 17:57 43.62501 -79.41154 424 ft 148 kts 241°
2026-05-05 17:57 43.61850 -79.42346 867 ft 162 kts 242°
2026-05-05 17:58 43.61365 -79.43688 1610 ft 157 kts 237°
2026-05-05 17:58 43.60394 -79.44324 2070 ft 175 kts 180°
2026-05-05 17:58 43.59287 -79.43500 2484 ft 192 kts 137°
2026-05-05 17:58 43.58409 -79.42133 3050 ft 193 kts 134°
2026-05-05 17:59 43.57511 -79.40733 3570 ft 195 kts 136°
2026-05-05 17:59 43.56598 -79.39329 4049 ft 202 kts 136°
2026-05-05 17:59 43.55644 -79.37878 4460 ft 212 kts 138°
2026-05-05 17:59 43.54657 -79.36378 5061 ft 212 kts 138°
2026-05-05 18:00 43.53674 -79.34890 5646 ft 212 kts 140°
2026-05-05 18:00 43.52674 -79.33388 6223 ft 212 kts 141°
2026-05-05 18:00 43.51670 -79.31886 6755 ft 215 kts 142°
2026-05-05 18:00 43.50684 -79.30347 7352 ft 217 kts 141°
2026-05-05 18:01 43.49729 -79.28754 7908 ft 218 kts 140°
2026-05-05 18:01 43.48780 -79.27106 8427 ft 220 kts 140°
2026-05-05 18:01 43.47845 -79.25449 8927 ft 223 kts 140°
2026-05-05 18:01 43.46905 -79.23749 9410 ft 227 kts 140°
2026-05-05 18:02 43.45951 -79.21995 9945 ft 227 kts 140°
2026-05-05 18:02 43.45042 -79.20281 10493 ft 226 kts 140°
2026-05-05 18:02 43.44100 -79.18494 10914 ft 232 kts 139°
2026-05-05 18:02 43.43153 -79.16708 11347 ft 234 kts 140°
2026-05-05 18:03 43.42198 -79.14908 11816 ft 232 kts 139°
2026-05-05 18:03 43.41261 -79.13121 12212 ft 235 kts 139°
2026-05-05 18:03 43.40301 -79.11290 12565 ft 238 kts 139°
2026-05-05 18:03 43.39330 -79.09438 13005 ft 238 kts 139°
2026-05-05 18:04 43.38421 -79.07491 13366 ft 253 kts 122°
2026-05-05 18:04 43.38267 -79.05016 13650 ft 277 kts 78°
2026-05-05 18:04 43.39210 -79.02715 13908 ft 280 kts 43°
2026-05-05 18:04 43.40591 -79.00835 14236 ft 283 kts 39°
2026-05-05 18:05 43.42002 -78.98978 14713 ft 278 kts 38°
2026-05-05 18:05 43.43406 -78.97136 14981 ft 285 kts 39°
2026-05-05 18:05 43.44866 -78.95225 15185 ft 295 kts 39°
2026-05-05 18:05 43.46365 -78.93255 15500 ft 298 kts 39°
2026-05-05 18:06 43.47855 -78.91292 15887 ft 297 kts 39°
2026-05-05 18:06 43.48856 -78.89973 16098 ft 299 kts 39°
2026-05-05 18:06 43.50847 -78.87348 16531 ft 302 kts 40°
2026-05-05 18:06 43.52360 -78.85349 16843 ft 302 kts 39°
2026-05-05 18:07 43.53889 -78.83327 17138 ft 305 kts 40°
2026-05-05 18:07 43.55430 -78.81287 17444 ft 306 kts 40°
2026-05-05 18:07 43.56942 -78.79282 17778 ft 305 kts 40°
2026-05-05 18:07 43.58490 -78.77229 18038 ft 308 kts 40°
2026-05-05 18:08 43.60024 -78.75192 18347 ft 308 kts 39°
2026-05-05 18:08 43.61554 -78.73161 18614 ft 309 kts 40°
2026-05-05 18:08 43.63122 -78.71080 18856 ft 312 kts 40°
2026-05-05 18:08 43.64670 -78.69019 19149 ft 312 kts 40°
2026-05-05 18:09 43.66242 -78.66928 19399 ft 313 kts 39°
2026-05-05 18:09 43.67805 -78.64848 19617 ft 316 kts 40°
2026-05-05 18:09 43.69381 -78.62743 19897 ft 316 kts 39°
2026-05-05 18:09 43.70969 -78.60620 20141 ft 317 kts 39°
2026-05-05 18:10 43.72551 -78.58507 20361 ft 319 kts 39°
2026-05-05 18:10 43.74138 -78.56383 20578 ft 320 kts 40°
2026-05-05 18:10 43.75752 -78.54222 20705 ft 324 kts 40°
2026-05-05 18:10 43.77379 -78.52048 20743 ft 333 kts 40°
2026-05-05 18:11 43.79057 -78.49805 20761 ft 342 kts 40°
2026-05-05 18:11 43.80793 -78.47483 20759 ft 350 kts 40°
2026-05-05 18:11 43.82560 -78.45118 20754 ft 358 kts 40°
2026-05-05 18:11 43.84363 -78.42702 20753 ft 365 kts 40°
2026-05-05 18:12 43.86182 -78.40259 20754 ft 371 kts 40°
2026-05-05 18:12 43.88052 -78.37747 20751 ft 378 kts 41°
2026-05-05 18:12 43.89945 -78.35201 20746 ft 383 kts 40°
2026-05-05 18:12 43.91864 -78.32614 20749 ft 386 kts 42°
2026-05-05 18:13 43.93795 -78.30010 20750 ft 390 kts 41°
2026-05-05 18:13 43.95743 -78.27380 20747 ft 393 kts 41°
2026-05-05 18:13 43.97730 -78.24693 20746 ft 396 kts 42°
2026-05-05 18:13 43.99690 -78.22041 20743 ft 398 kts 42°
2026-05-05 18:14 44.01661 -78.19369 20739 ft 401 kts 42°
2026-05-05 18:14 44.03664 -78.16651 20739 ft 403 kts 42°
2026-05-05 18:14 44.05687 -78.13902 20732 ft 405 kts 41°
2026-05-05 18:14 44.07683 -78.11188 20725 ft 406 kts 41°
2026-05-05 18:15 44.09697 -78.08447 20719 ft 408 kts 41°
2026-05-05 18:15 44.12395 -78.04770 20735 ft 407 kts 42°
2026-05-05 18:15 44.13730 -78.02947 20724 ft 406 kts 42°
2026-05-05 18:15 44.16411 -77.99272 20712 ft 407 kts 43°
2026-05-05 18:16 44.17636 -77.97283 20714 ft 408 kts 51°
2026-05-05 18:16 44.19238 -77.94050 20710 ft 407 kts 55°
2026-05-05 18:16 44.20832 -77.90743 20716 ft 406 kts 56°
2026-05-05 18:16 44.22393 -77.87498 20712 ft 403 kts 56°
2026-05-05 18:17 44.23950 -77.84257 20726 ft 404 kts 55°
2026-05-05 18:17 44.25494 -77.81046 20710 ft 405 kts 56°
2026-05-05 18:17 44.27075 -77.77761 20722 ft 406 kts 55°
2026-05-05 18:17 44.28639 -77.74506 20736 ft 407 kts 55°
2026-05-05 18:18 44.30217 -77.71227 20728 ft 408 kts 56°
2026-05-05 18:18 44.31790 -77.67954 20727 ft 410 kts 55°
2026-05-05 18:18 44.33393 -77.64613 20715 ft 409 kts 55°
2026-05-05 18:18 44.35490 -77.60242 20716 ft 410 kts 56°
2026-05-05 18:19 44.36559 -77.58007 20706 ft 411 kts 56°
2026-05-05 18:19 44.38107 -77.54688 20722 ft 411 kts 56°
2026-05-05 18:19 44.39646 -77.51350 20515 ft 413 kts 57°
2026-05-05 18:19 44.40173 -77.50204 20408 ft 413 kts 56°
2026-05-05 18:20 44.41199 -77.47978 20202 ft 412 kts 56°
2026-05-05 18:20 44.44304 -77.41238 19483 ft 414 kts 56°
2026-05-05 18:20 44.46383 -77.36719 19009 ft 416 kts 56°
2026-05-05 18:20 44.47415 -77.34475 18765 ft 415 kts 56°
2026-05-05 18:21 44.48980 -77.31065 18400 ft 414 kts 57°
2026-05-05 18:21 44.51045 -77.26563 17922 ft 414 kts 57°
2026-05-05 18:21 44.52084 -77.24301 17719 ft 413 kts 56°
2026-05-05 18:21 44.54127 -77.19835 17217 ft 408 kts 57°
2026-05-05 18:22 44.55639 -77.16529 16861 ft 402 kts 57°
2026-05-05 18:22 44.57128 -77.13268 16503 ft 394 kts 57°
2026-05-05 18:22 44.58097 -77.11146 16285 ft 385 kts 57°
2026-05-05 18:22 44.59523 -77.08014 15953 ft 374 kts 57°
2026-05-05 18:23 44.60903 -77.04979 15636 ft 364 kts 57°
2026-05-05 18:23 44.62235 -77.02045 15323 ft 356 kts 56°
2026-05-05 18:23 44.63546 -76.99151 15026 ft 350 kts 57°
2026-05-05 18:23 44.64841 -76.96290 14727 ft 345 kts 56°
2026-05-05 18:24 44.66163 -76.93504 14504 ft 337 kts 52°
2026-05-05 18:24 44.67527 -76.90890 14300 ft 332 kts 51°
2026-05-05 18:24 44.68928 -76.88223 14126 ft 347 kts 51°
2026-05-05 18:24 44.70384 -76.85446 13918 ft 361 kts 52°
2026-05-05 18:25 44.71886 -76.82574 13691 ft 372 kts 52°
2026-05-05 18:25 44.72927 -76.80577 13543 ft 378 kts 52°
2026-05-05 18:25 44.74984 -76.76622 13493 ft 381 kts 52°
2026-05-05 18:25 44.77081 -76.72582 13287 ft 387 kts 52°
2026-05-05 18:26 44.78671 -76.69515 13065 ft 391 kts 52°
2026-05-05 18:26 44.79757 -76.67417 12909 ft 392 kts 52°
2026-05-05 18:26 44.81347 -76.64342 12679 ft 395 kts 52°
2026-05-05 18:26 44.82954 -76.61229 12451 ft 396 kts 52°
2026-05-05 18:27 44.84587 -76.58062 12207 ft 397 kts 52°
2026-05-05 18:27 44.86191 -76.54948 11956 ft 384 kts 52°
2026-05-05 18:27 44.87720 -76.51974 11734 ft 366 kts 52°
2026-05-05 18:27 44.89662 -76.48180 11462 ft 356 kts 52°
2026-05-05 18:28 44.92056 -76.43493 11107 ft 354 kts 52°
2026-05-05 18:28 44.93483 -76.40697 10894 ft 353 kts 52°
2026-05-05 18:28 44.95422 -76.36942 10613 ft 351 kts 50°
2026-05-05 18:29 44.96903 -76.34231 10394 ft 350 kts 50°
2026-05-05 18:29 44.97887 -76.32441 10258 ft 348 kts 50°
2026-05-05 18:29 44.99371 -76.29736 10047 ft 346 kts 51°
2026-05-05 18:29 45.00824 -76.27080 9840 ft 345 kts 51°
2026-05-05 18:30 45.02767 -76.23521 9574 ft 342 kts 50°
2026-05-05 18:30 45.04198 -76.20894 9368 ft 340 kts 50°
2026-05-05 18:30 45.05651 -76.18225 9165 ft 337 kts 50°
2026-05-05 18:30 45.07062 -76.15627 8965 ft 335 kts 50°
2026-05-05 18:31 45.08472 -76.13028 8766 ft 333 kts 51°
2026-05-05 18:31 45.09412 -76.11295 8637 ft 332 kts 51°
2026-05-05 18:31 45.10798 -76.08735 8435 ft 330 kts 51°
2026-05-05 18:31 45.12651 -76.05303 8178 ft 325 kts 50°
2026-05-05 18:32 45.13566 -76.03607 8051 ft 323 kts 50°
2026-05-05 18:32 45.15367 -76.00271 7797 ft 320 kts 50°
2026-05-05 18:32 45.16709 -75.97784 7593 ft 311 kts 49°
2026-05-05 18:32 45.17562 -75.96203 7468 ft 299 kts 50°
2026-05-05 18:33 45.19185 -75.93185 7229 ft 278 kts 50°
2026-05-05 18:33 45.19936 -75.91785 7128 ft 267 kts 50°
2026-05-05 18:33 45.21031 -75.89737 6967 ft 252 kts 49°
2026-05-05 18:33 45.21913 -75.86857 6720 ft 231 kts 97°
2026-05-05 18:34 45.21585 -75.84685 6651 ft 229 kts 114°
2026-05-05 18:34 45.21092 -75.82458 6527 ft 245 kts 114°
2026-05-05 18:34 45.20750 -75.80925 6441 ft 250 kts 114°
2026-05-05 18:34 45.20032 -75.77728 6188 ft 257 kts 114°
2026-05-05 18:35 45.19670 -75.76131 6094 ft 260 kts 114°
2026-05-05 18:35 45.19219 -75.73620 5894 ft 271 kts 98°
2026-05-05 18:35 45.19645 -75.71008 5750 ft 274 kts 60°
2026-05-05 18:35 45.20644 -75.68734 5586 ft 273 kts 53°
2026-05-05 18:36 45.21690 -75.66481 5423 ft 273 kts 53°
2026-05-05 18:36 45.22720 -75.64258 5262 ft 272 kts 53°
2026-05-05 18:36 45.23750 -75.62019 5102 ft 272 kts 53°
2026-05-05 18:36 45.24791 -75.59744 4943 ft 271 kts 53°
2026-05-05 18:37 45.26121 -75.56819 4733 ft 261 kts 54°
2026-05-05 18:37 45.27092 -75.54673 4585 ft 253 kts 54°
2026-05-05 18:37 45.27714 -75.53294 4497 ft 248 kts 53°
2026-05-05 18:37 45.28634 -75.51249 4361 ft 241 kts 53°
2026-05-05 18:38 45.29803 -75.48641 4208 ft 232 kts 54°
2026-05-05 18:38 45.30680 -75.46680 4072 ft 237 kts 54°
2026-05-05 18:38 45.31280 -75.45340 3981 ft 241 kts 54°
2026-05-05 18:38 45.32489 -75.42641 3810 ft 247 kts 53°
2026-05-05 18:39 45.33102 -75.41272 3720 ft 250 kts 54°
2026-05-05 18:39 45.34521 -75.38577 3235 ft 263 kts 46°
2026-05-05 18:39 45.35312 -75.36256 3070 ft 261 kts 81°
2026-05-05 18:39 45.35607 -75.33817 3200 ft 241 kts 71°
2026-05-05 18:40 45.36108 -75.32434 3310 ft 230 kts 48°
2026-05-05 18:40 45.37367 -75.31338 3371 ft 203 kts 359°
2026-05-05 18:40 45.38842 -75.32179 3382 ft 162 kts 295°
2026-05-05 18:40 45.39175 -75.33120 3415 ft 158 kts 288°
2026-05-05 18:41 45.39787 -75.35001 3503 ft 158 kts 288°
2026-05-05 18:41 45.40243 -75.36429 3562 ft 156 kts 286°
2026-05-05 18:41 45.40485 -75.37382 3596 ft 155 kts 281°
2026-05-05 18:41 45.40761 -75.39372 3667 ft 153 kts 272°
2026-05-05 18:42 45.40810 -75.40898 3618 ft 159 kts 267°
2026-05-05 18:42 45.40738 -75.42493 3500 ft 162 kts 262°
2026-05-05 18:42 45.40570 -75.44134 3305 ft 182 kts 259°
2026-05-05 18:42 45.40275 -75.45942 2991 ft 186 kts 252°
2026-05-05 18:43 45.39746 -75.47553 2806 ft 174 kts 244°
2026-05-05 18:43 45.39180 -75.49016 2639 ft 162 kts 243°
2026-05-05 18:43 45.38642 -75.50359 2478 ft 151 kts 243°
2026-05-05 18:43 45.38129 -75.51613 2339 ft 148 kts 243°
2026-05-05 18:44 45.37781 -75.52457 2245 ft 147 kts 242°
2026-05-05 18:44 45.37259 -75.53696 2102 ft 144 kts 242°
2026-05-05 18:44 45.36749 -75.54887 1959 ft 142 kts 242°
2026-05-05 18:44 45.36055 -75.56489 1705 ft 144 kts 241°
2026-05-05 18:45 45.35521 -75.57713 1515 ft 147 kts 241°
2026-05-05 18:45 45.35154 -75.58549 1380 ft 150 kts 240°
2026-05-05 18:45 45.34595 -75.59811 1186 ft 153 kts 240°
2026-05-05 18:45 45.33828 -75.61542 1058 ft 149 kts 240°
2026-05-05 18:46 45.33476 -75.62346 911 ft 142 kts 238°
2026-05-05 18:46 45.32771 -75.63904 533 ft 137 kts 237°
2026-05-05 18:46 45.32281 -75.65021 370 ft 122 kts 235°
2026-05-05 18:46 45.31962 -75.65723 372 ft 69 kts 238°
2026-05-05 18:47 45.31796 -75.66105 370 ft 56 kts 237°
2026-05-05 18:47 45.31792 -75.66411 372 ft 17 kts 302°
2026-05-05 18:47 45.31802 -75.66432 373 ft 0 kts 301°
2026-05-05 18:49 45.31815 -75.66451 373 ft 8 kts 321°
2026-05-05 18:49 45.31934 -75.66486 373 ft 20 kts 358°
2026-05-05 18:49 45.32003 -75.66495 373 ft 2 kts 352°
2026-05-05 18:50 45.32005 -75.66496 373 ft 0 kts 352°